RYR2E EPKK-LIRP

Flight info

Callsign RYR2E
Flight time 1h 28m
Altitude 36000
Route BABKO DCT VADEX DCT BABNI DCT MAREG DCT INSAX DCT GOLVA DCT LAPNA DCT GAVRA DCT KUGIX Y662 AKUTO L12 MAREL
Aircraft B38M/M-SADE3FGIJ1LRWY/SB1

Departure

Time 2026-05-05 15:35
Airport Kraków John Paul II International Airport (EPKK)

Arrival

Time 2026-05-05 17:03
Airport Pisa International Airport (LIRP)
Time Latitude Longitude Altitude Speed Heading
2026-05-05 15:07 50.07602 19.80293 802 ft 0 kts 346°
2026-05-05 15:32 50.07623 19.80285 802 ft 8 kts 347°
2026-05-05 15:32 50.07660 19.80344 802 ft 9 kts 71°
2026-05-05 15:32 50.07717 19.80381 802 ft 10 kts 351°
2026-05-05 15:32 50.07793 19.80354 802 ft 12 kts 347°
2026-05-05 15:33 50.07881 19.80324 802 ft 14 kts 348°
2026-05-05 15:33 50.07984 19.80290 802 ft 15 kts 348°
2026-05-05 15:33 50.08017 19.80236 802 ft 7 kts 264°
2026-05-05 15:33 50.08014 19.80214 802 ft 0 kts 258°
2026-05-05 15:34 50.08004 19.80138 803 ft 27 kts 258°
2026-05-05 15:34 50.07907 19.79442 802 ft 102 kts 257°
2026-05-05 15:34 50.07709 19.78034 803 ft 162 kts 256°
2026-05-05 15:35 50.07470 19.76249 1417 ft 168 kts 255°
2026-05-05 15:35 50.07221 19.74509 2286 ft 170 kts 253°
2026-05-05 15:35 50.06952 19.72646 3040 ft 182 kts 253°
2026-05-05 15:35 50.06665 19.70637 3794 ft 198 kts 253°
2026-05-05 15:36 50.06194 19.68564 4554 ft 211 kts 234°
2026-05-05 15:36 50.05081 19.66957 5250 ft 230 kts 208°
2026-05-05 15:36 50.03516 19.66094 5967 ft 248 kts 197°
2026-05-05 15:36 50.01792 19.65331 6597 ft 268 kts 198°
2026-05-05 15:37 49.99933 19.64494 7174 ft 289 kts 198°
2026-05-05 15:37 49.97934 19.63592 7710 ft 309 kts 198°
2026-05-05 15:37 49.95797 19.62623 8163 ft 330 kts 198°
2026-05-05 15:37 49.93522 19.61585 8638 ft 349 kts 198°
2026-05-05 15:38 49.91160 19.60509 9353 ft 357 kts 198°
2026-05-05 15:38 49.88770 19.59424 10180 ft 361 kts 198°
2026-05-05 15:38 49.86341 19.58319 10946 ft 364 kts 198°
2026-05-05 15:38 49.83905 19.57212 11714 ft 367 kts 198°
2026-05-05 15:39 49.81446 19.56098 12454 ft 370 kts 198°
2026-05-05 15:39 49.78960 19.54970 13197 ft 373 kts 198°
2026-05-05 15:39 49.76455 19.53836 13822 ft 377 kts 198°
2026-05-05 15:39 49.73926 19.52695 14474 ft 379 kts 197°
2026-05-05 15:40 49.71352 19.51532 15070 ft 383 kts 197°
2026-05-05 15:40 49.68810 19.50385 15655 ft 386 kts 197°
2026-05-05 15:40 49.66223 19.49219 16234 ft 389 kts 197°
2026-05-05 15:40 49.64462 19.48426 16628 ft 391 kts 197°
2026-05-05 15:41 49.61946 19.46835 17172 ft 394 kts 211°
2026-05-05 15:41 49.59829 19.44136 17722 ft 400 kts 226°
2026-05-05 15:41 49.57985 19.40890 18238 ft 404 kts 227°
2026-05-05 15:41 49.56133 19.37583 18669 ft 408 kts 227°
2026-05-05 15:42 49.54294 19.34256 19157 ft 410 kts 228°
2026-05-05 15:42 49.52441 19.30878 19586 ft 413 kts 228°
2026-05-05 15:42 49.50592 19.27494 20050 ft 416 kts 229°
2026-05-05 15:42 49.48720 19.24069 20488 ft 419 kts 229°
2026-05-05 15:43 49.46846 19.20644 20975 ft 420 kts 229°
2026-05-05 15:43 49.44955 19.17192 21391 ft 424 kts 229°
2026-05-05 15:43 49.43051 19.13718 21818 ft 427 kts 229°
2026-05-05 15:43 49.41103 19.10171 22241 ft 430 kts 230°
2026-05-05 15:44 49.39168 19.06652 22677 ft 433 kts 230°
2026-05-05 15:44 49.37220 19.03112 23095 ft 436 kts 230°
2026-05-05 15:44 49.35257 18.99552 23512 ft 439 kts 230°
2026-05-05 15:44 49.33280 18.95971 23884 ft 441 kts 230°
2026-05-05 15:45 49.31286 18.92363 24266 ft 444 kts 230°
2026-05-05 15:45 49.29287 18.88753 24655 ft 446 kts 230°
2026-05-05 15:45 49.27267 18.85110 25041 ft 449 kts 230°
2026-05-05 15:45 49.25242 18.81463 25419 ft 452 kts 230°
2026-05-05 15:46 49.23202 18.77792 25797 ft 454 kts 230°
2026-05-05 15:46 49.21240 18.74269 26152 ft 456 kts 230°
2026-05-05 15:46 49.19174 18.70559 26514 ft 458 kts 229°
2026-05-05 15:46 49.17107 18.66858 26922 ft 459 kts 229°
2026-05-05 15:47 49.15038 18.63155 27383 ft 458 kts 229°
2026-05-05 15:47 49.12971 18.59463 27864 ft 457 kts 229°
2026-05-05 15:47 49.10884 18.55739 28349 ft 455 kts 229°
2026-05-05 15:47 49.08827 18.52075 28828 ft 454 kts 229°
2026-05-05 15:48 49.06771 18.48419 29286 ft 453 kts 230°
2026-05-05 15:48 49.04723 18.44780 29781 ft 452 kts 230°
2026-05-05 15:48 49.02676 18.41149 30205 ft 450 kts 230°
2026-05-05 15:48 49.00637 18.37535 30616 ft 449 kts 230°
2026-05-05 15:49 48.98603 18.33936 31001 ft 448 kts 230°
2026-05-05 15:49 48.96571 18.30347 31385 ft 448 kts 230°
2026-05-05 15:49 48.94543 18.26768 31761 ft 446 kts 230°
2026-05-05 15:49 48.92516 18.23196 32147 ft 446 kts 230°
2026-05-05 15:50 48.90466 18.19589 32548 ft 444 kts 230°
2026-05-05 15:50 48.88473 18.16088 32929 ft 443 kts 230°
2026-05-05 15:50 48.86432 18.12507 33323 ft 442 kts 230°
2026-05-05 15:50 48.84422 18.08983 33697 ft 441 kts 230°
2026-05-05 15:51 48.82420 18.05479 34041 ft 440 kts 230°
2026-05-05 15:51 48.80417 18.01978 34349 ft 439 kts 230°
2026-05-05 15:51 48.78414 17.98483 34646 ft 439 kts 230°
2026-05-05 15:51 48.76413 17.94994 34936 ft 438 kts 230°
2026-05-05 15:52 48.74415 17.91517 35234 ft 438 kts 230°
2026-05-05 15:52 48.72415 17.88040 35520 ft 437 kts 230°
2026-05-05 15:52 48.70414 17.84566 35775 ft 437 kts 230°
2026-05-05 15:53 48.66415 17.77636 35821 ft 435 kts 230°
2026-05-05 15:53 48.62427 17.70743 35830 ft 435 kts 230°
2026-05-05 15:54 48.58415 17.63824 35827 ft 435 kts 230°
2026-05-05 15:54 48.54419 17.56955 35819 ft 435 kts 230°
2026-05-05 15:55 48.50423 17.50103 35813 ft 435 kts 230°
2026-05-05 15:55 48.46421 17.43258 35801 ft 435 kts 230°
2026-05-05 15:56 48.42418 17.36430 35797 ft 435 kts 230°
2026-05-05 15:56 48.38384 17.29564 35799 ft 435 kts 230°
2026-05-05 15:57 48.34374 17.22758 35794 ft 434 kts 230°
2026-05-05 15:57 48.30365 17.15968 35802 ft 434 kts 230°
2026-05-05 15:58 48.26360 17.09201 35799 ft 433 kts 230°
2026-05-05 15:58 48.22358 17.02455 35798 ft 433 kts 230°
2026-05-05 15:59 48.18161 16.96241 35784 ft 434 kts 214°
2026-05-05 15:59 48.13020 16.91443 35808 ft 435 kts 214°
2026-05-05 16:00 48.07876 16.86676 35773 ft 435 kts 213°
2026-05-05 16:00 48.02718 16.81959 35775 ft 435 kts 213°
2026-05-05 16:01 47.97555 16.77257 35774 ft 435 kts 213°
2026-05-05 16:01 47.92397 16.72569 35786 ft 435 kts 213°
2026-05-05 16:02 47.87223 16.67879 35797 ft 435 kts 213°
2026-05-05 16:02 47.82057 16.63206 35801 ft 435 kts 213°
2026-05-05 16:03 47.76884 16.58538 35817 ft 435 kts 213°
2026-05-05 16:03 47.71675 16.53850 35821 ft 435 kts 213°
2026-05-05 16:04 47.66457 16.49165 35822 ft 435 kts 213°
2026-05-05 16:04 47.61274 16.44520 35830 ft 435 kts 213°
2026-05-05 16:05 47.56085 16.39883 35826 ft 435 kts 213°
2026-05-05 16:05 47.50895 16.35254 35837 ft 436 kts 213°
2026-05-05 16:06 47.45700 16.30633 35846 ft 436 kts 213°
2026-05-05 16:06 47.41342 16.26763 35847 ft 436 kts 213°
2026-05-05 16:07 47.36101 16.22121 35855 ft 437 kts 213°
2026-05-05 16:07 47.30880 16.17507 35864 ft 437 kts 213°
2026-05-05 16:08 47.25659 16.12903 35867 ft 438 kts 213°
2026-05-05 16:08 47.20384 16.08263 35875 ft 439 kts 213°
2026-05-05 16:09 47.15145 16.03666 35873 ft 439 kts 213°
2026-05-05 16:09 47.09902 15.99076 35881 ft 439 kts 213°
2026-05-05 16:10 47.04652 15.94490 35883 ft 439 kts 213°
2026-05-05 16:10 46.99405 15.89916 35883 ft 439 kts 212°
2026-05-05 16:11 46.94144 15.85342 35887 ft 440 kts 213°
2026-05-05 16:12 46.83580 15.76188 35889 ft 440 kts 213°
2026-05-05 16:13 46.70328 15.64873 35916 ft 441 kts 210°
2026-05-05 16:13 46.64891 15.60736 35930 ft 441 kts 210°
2026-05-05 16:14 46.54043 15.52256 35924 ft 439 kts 218°
2026-05-05 16:15 46.45246 15.40116 35932 ft 436 kts 226°
2026-05-05 16:16 46.36594 15.27774 35940 ft 437 kts 226°
2026-05-05 16:17 46.30056 15.18477 35952 ft 438 kts 226°
2026-05-05 16:18 46.23528 15.09225 35960 ft 438 kts 226°
2026-05-05 16:19 46.16989 14.99992 35973 ft 439 kts 226°
2026-05-05 16:19 46.10439 14.90774 35985 ft 439 kts 226°
2026-05-05 16:20 46.01673 14.78489 35985 ft 438 kts 226°
2026-05-05 16:22 45.90745 14.63253 35997 ft 437 kts 226°
2026-05-05 16:23 45.82004 14.51131 36007 ft 436 kts 226°
2026-05-05 16:23 45.75432 14.42053 36013 ft 435 kts 226°
2026-05-05 16:24 45.71067 14.36041 36013 ft 435 kts 226°
2026-05-05 16:25 45.64494 14.27013 36023 ft 435 kts 226°
2026-05-05 16:25 45.57944 14.18049 36024 ft 434 kts 226°
2026-05-05 16:26 45.49213 14.06146 36017 ft 434 kts 225°
2026-05-05 16:27 45.44810 14.00163 36011 ft 434 kts 225°
2026-05-05 16:27 45.40445 13.94246 36006 ft 434 kts 225°
2026-05-05 16:28 45.36075 13.88334 36010 ft 434 kts 225°
2026-05-05 16:28 45.31695 13.82424 36001 ft 434 kts 225°
2026-05-05 16:29 45.27316 13.76526 35998 ft 434 kts 225°
2026-05-05 16:29 45.23657 13.71610 35997 ft 434 kts 225°
2026-05-05 16:30 45.19319 13.65793 35999 ft 434 kts 225°
2026-05-05 16:30 45.14932 13.59922 35996 ft 434 kts 225°
2026-05-05 16:31 45.10537 13.54055 35985 ft 434 kts 225°
2026-05-05 16:31 45.06120 13.48170 35987 ft 434 kts 225°
2026-05-05 16:32 45.01718 13.42319 35979 ft 434 kts 225°
2026-05-05 16:32 44.97317 13.36482 35972 ft 434 kts 225°
2026-05-05 16:33 44.92918 13.30660 35965 ft 434 kts 225°
2026-05-05 16:33 44.88512 13.24844 35969 ft 434 kts 225°
2026-05-05 16:34 44.84106 13.19039 35957 ft 433 kts 225°
2026-05-05 16:34 44.79669 13.13206 35963 ft 433 kts 225°
2026-05-05 16:35 44.75260 13.07422 35949 ft 433 kts 225°
2026-05-05 16:35 44.70850 13.01650 35950 ft 433 kts 225°
2026-05-05 16:36 44.66435 12.95884 35952 ft 433 kts 225°
2026-05-05 16:36 44.62025 12.90137 35957 ft 432 kts 226°
2026-05-05 16:37 44.57614 12.84402 35954 ft 432 kts 226°
2026-05-05 16:37 44.53175 12.78642 35961 ft 432 kts 226°
2026-05-05 16:38 44.48761 12.72928 35961 ft 431 kts 226°
2026-05-05 16:38 44.44356 12.67237 35962 ft 431 kts 226°
2026-05-05 16:39 44.39956 12.61564 35966 ft 430 kts 226°
2026-05-05 16:39 44.35553 12.55901 35964 ft 429 kts 226°
2026-05-05 16:40 44.31153 12.50252 35964 ft 429 kts 226°
2026-05-05 16:40 44.26757 12.44621 35963 ft 429 kts 226°
2026-05-05 16:41 44.22339 12.38974 35960 ft 428 kts 226°
2026-05-05 16:41 44.17938 12.33362 35964 ft 428 kts 226°
2026-05-05 16:42 44.13540 12.27764 35965 ft 428 kts 226°
2026-05-05 16:42 44.09163 12.22206 35179 ft 426 kts 226°
2026-05-05 16:43 44.06949 12.19398 34283 ft 432 kts 226°
2026-05-05 16:43 44.04740 12.16599 33594 ft 429 kts 226°
2026-05-05 16:43 44.02518 12.13786 32509 ft 435 kts 225°
2026-05-05 16:43 44.00272 12.10945 31585 ft 438 kts 225°
2026-05-05 16:44 43.98012 12.08088 30763 ft 439 kts 225°
2026-05-05 16:44 43.95750 12.05234 29838 ft 442 kts 225°
2026-05-05 16:44 43.93465 12.02353 28698 ft 447 kts 225°
2026-05-05 16:44 43.91159 11.99450 27673 ft 449 kts 225°
2026-05-05 16:45 43.88811 11.96496 26776 ft 449 kts 224°
2026-05-05 16:45 43.86505 11.93599 26025 ft 445 kts 224°
2026-05-05 16:45 43.84217 11.90726 25267 ft 443 kts 224°
2026-05-05 16:45 43.81931 11.87859 24513 ft 441 kts 224°
2026-05-05 16:46 43.79694 11.85045 23781 ft 439 kts 225°
2026-05-05 16:46 43.77777 11.81717 22808 ft 438 kts 240°
2026-05-05 16:46 43.76503 11.77915 22131 ft 432 kts 248°
2026-05-05 16:46 43.75373 11.74094 21471 ft 427 kts 248°
2026-05-05 16:47 43.74270 11.70293 20758 ft 424 kts 248°
2026-05-05 16:47 43.73189 11.66518 20037 ft 421 kts 249°
2026-05-05 16:47 43.72119 11.62758 19344 ft 418 kts 249°
2026-05-05 16:47 43.71062 11.59035 18648 ft 416 kts 249°
2026-05-05 16:48 43.70007 11.55322 17907 ft 414 kts 249°
2026-05-05 16:48 43.68959 11.51635 17190 ft 411 kts 249°
2026-05-05 16:48 43.67919 11.47985 16580 ft 406 kts 249°
2026-05-05 16:48 43.66889 11.44374 15834 ft 404 kts 249°
2026-05-05 16:49 43.65862 11.40781 15276 ft 399 kts 248°
2026-05-05 16:49 43.64843 11.37217 14579 ft 398 kts 249°
2026-05-05 16:49 43.63819 11.33641 14058 ft 392 kts 249°
2026-05-05 16:49 43.62816 11.30148 13350 ft 392 kts 248°
2026-05-05 16:50 43.61817 11.26671 12749 ft 387 kts 248°
2026-05-05 16:50 43.60818 11.23205 12036 ft 388 kts 247°
2026-05-05 16:50 43.59831 11.19774 11597 ft 381 kts 247°
2026-05-05 16:50 43.58870 11.16436 11376 ft 368 kts 247°
2026-05-05 16:51 43.57939 11.13206 11183 ft 357 kts 247°
2026-05-05 16:51 43.57033 11.10073 10980 ft 346 kts 246°
2026-05-05 16:51 43.56154 11.07032 10791 ft 336 kts 246°
2026-05-05 16:51 43.55299 11.04085 10601 ft 327 kts 246°
2026-05-05 16:52 43.54464 11.01230 10439 ft 317 kts 245°
2026-05-05 16:52 43.53646 10.98446 10260 ft 309 kts 246°
2026-05-05 16:52 43.52853 10.95732 10100 ft 300 kts 245°
2026-05-05 16:52 43.52082 10.93086 9850 ft 296 kts 245°
2026-05-05 16:53 43.51318 10.90459 9469 ft 295 kts 246°
2026-05-05 16:53 43.50556 10.87846 9106 ft 294 kts 245°
2026-05-05 16:53 43.49797 10.85238 8762 ft 292 kts 245°
2026-05-05 16:53 43.49043 10.82654 8432 ft 289 kts 245°
2026-05-05 16:54 43.48287 10.80063 8109 ft 287 kts 245°
2026-05-05 16:54 43.47541 10.77512 7775 ft 286 kts 245°
2026-05-05 16:54 43.46824 10.74971 7440 ft 285 kts 251°
2026-05-05 16:54 43.46687 10.72246 7096 ft 291 kts 276°
2026-05-05 16:55 43.47112 10.69525 6803 ft 289 kts 279°
2026-05-05 16:55 43.47547 10.66832 6490 ft 288 kts 280°
2026-05-05 16:55 43.47991 10.64131 6071 ft 290 kts 280°
2026-05-05 16:55 43.48441 10.61429 5689 ft 290 kts 280°
2026-05-05 16:56 43.48893 10.58723 5369 ft 288 kts 279°
2026-05-05 16:56 43.49191 10.56945 5163 ft 287 kts 280°
2026-05-05 16:56 43.49636 10.54281 4866 ft 285 kts 280°
2026-05-05 16:56 43.50077 10.51639 4560 ft 282 kts 280°
2026-05-05 16:57 43.50510 10.49040 4422 ft 273 kts 279°
2026-05-05 16:57 43.50934 10.46498 4288 ft 265 kts 279°
2026-05-05 16:57 43.51341 10.44059 4167 ft 257 kts 279°
2026-05-05 16:57 43.51733 10.41697 4058 ft 249 kts 279°
2026-05-05 16:58 43.52114 10.39401 3896 ft 243 kts 279°
2026-05-05 16:58 43.52485 10.37165 3736 ft 233 kts 279°
2026-05-05 16:58 43.52840 10.35040 3621 ft 223 kts 279°
2026-05-05 16:58 43.53176 10.33009 3507 ft 212 kts 278°
2026-05-05 16:59 43.53494 10.31070 3367 ft 203 kts 277°
2026-05-05 16:59 43.53831 10.29217 3163 ft 198 kts 288°
2026-05-05 16:59 43.54678 10.27706 2831 ft 204 kts 323°
2026-05-05 16:59 43.55988 10.27072 2556 ft 200 kts 360°
2026-05-05 17:00 43.57284 10.27517 2333 ft 188 kts 37°
2026-05-05 17:00 43.58185 10.28724 2152 ft 181 kts 52°
2026-05-05 17:00 43.59128 10.29900 1976 ft 184 kts 44°
2026-05-05 17:00 43.60150 10.30966 1726 ft 184 kts 40°
2026-05-05 17:01 43.61181 10.32012 1476 ft 184 kts 41°
2026-05-05 17:01 43.62211 10.33069 1201 ft 184 kts 42°
2026-05-05 17:01 43.63215 10.34104 1026 ft 175 kts 41°
2026-05-05 17:01 43.64147 10.35066 830 ft 161 kts 40°
2026-05-05 17:02 43.65035 10.35982 624 ft 157 kts 39°
2026-05-05 17:02 43.65924 10.36898 420 ft 159 kts 37°
2026-05-05 17:02 43.66811 10.37806 216 ft 158 kts 37°
2026-05-05 17:02 43.67694 10.38715 19 ft 156 kts 36°
2026-05-05 17:03 43.68442 10.39489 12 ft 102 kts 37°
2026-05-05 17:03 43.68845 10.39905 10 ft 51 kts 37°
2026-05-05 17:03 43.69089 10.40160 11 ft 38 kts 37°
2026-05-05 17:03 43.69220 10.40294 11 ft 8 kts 35°
2026-05-05 17:04 43.69280 10.40287 12 ft 10 kts 324°
2026-05-05 17:04 43.69325 10.40210 13 ft 11 kts 307°
2026-05-05 17:04 43.69379 10.40118 13 ft 13 kts 320°
2026-05-05 17:04 43.69452 10.40092 13 ft 15 kts 353°
2026-05-05 17:05 43.69555 10.40074 14 ft 15 kts 352°
2026-05-05 17:05 43.69654 10.40052 14 ft 11 kts 344°
2026-05-05 17:05 43.69704 10.40025 15 ft 6 kts 355°
2026-05-05 17:05 43.69739 10.40030 14 ft 3 kts
2026-05-05 17:06 43.69745 10.40032 14 ft 0 kts